weather.gov     
National Weather Service

Terminal Aerodrome Forecast
NWS Homepage
This page is being discontinued on March 12, 2014.
The same data is available at this site. Please update your bookmarks.
Thank you, and we apologize for the inconvenience.
Please send an email to SR-SRH.Webmaster@noaa.gov with any concerns.


Current Version
Previous Version:    01  02  03  04  05  06  07  08  09  10  11  12  13  14  15  16  17  18  19  20  21  22  23  24  25  26  27  28  29  30  
   31  32  33  34  35  36  37  
[Printable]
316
FTUS44 KSHV 220500 RRA
TAFTYR
TAF
KTYR 220541Z 2206/2306 18008KT P6SM BKN016 OVC035
      TEMPO 2208/2211 OVC008
     FM221100 19011KT P6SM OVC008
     FM221800 21010KT P6SM OVC013
     FM222100 22010KT P6SM OVC020
     FM230000 29005KT P6SM BKN025
     FM230200 31004KT P6SM SCT030 BKN150 BKN250=


U.S. Dept. of Commerce
NOAA National Weather Service
1325 East West Highway
Silver Spring, MD 20910
E-mail: w-nws.webmaster@noaa.gov
Page last modified: May 16, 2007
NATIONAL WEATHER SERVICE: for Safety, for Work, for Fun - FOR LIFE